Manistee, MI

12:40 AM EST on December 13, 2017 (GMT -0500)
Manistee County-Blacker

Weather History for KMBL - November, 2012

Change the Weather History Date:

Sunday, November 25, 2012

  Actual Average Record
Temperature  
Mean Temperature 30 °F -  
Max Temperature 33 °F 41 °F 62 °F (1984)
Min Temperature 26 °F 29 °F -8 °F (1950)
Degree Days  
Heating Degree Days 36    
Moisture  
Dew Point 23 °F    
Average Humidity 71    
Maximum Humidity 93    
Minimum Humidity 55    
Precipitation  
Precipitation 0.12 in - - ()
Sea Level Pressure  
Sea Level Pressure 29.86 in    
Wind  
Wind Speed 8 mph (West)    
Max Wind Speed 20 mph    
Max Gust Speed 25 mph    
Visibility 8 miles    
Events      
Averages and records for this station are not official NWS values.
T = Trace of Precipitation, MM = Missing Value Source: NWS Daily Summary

Daily Weather History Graph

Daily Weather History Graph

Search for Another Location

Airport or City:

Trip Planner

Search our weather history database for the weather conditions in past years. The results will help you decide how hot, cold, wet, or windy it might be!

Date:

Astronomy

Nov. 25, 2012 Rise Set
Actual Time 7:54 AM EST 5:09 PM EST
Civil Twilight 7:21 AM EST 5:42 PM EST
Nautical Twilight 6:46 AM EST 6:17 PM EST
Astronomical Twilight 6:11 AM EST 6:52 PM EST
Moon 3:30 PM EST (11/25) 5:03 AM EST (11/25)
Length of Visible Light 10h 20m
Length of Day
9h 15m
Waxing Gibbous, 93% of the Moon is Illuminated
Nov 25
Waxing Gibbous
Nov 28
Full
Dec 6
Last Quarter
Dec 13
New
Dec 20
First Quarter

Hourly Weather History & Observations

Time (EST) Temp. Windchill Dew Point Humidity Pressure Visibility Wind Dir Wind Speed Gust Speed Precip Events Conditions
12:15 AM 28.4 °F 22.2 °F 19.4 °F 69% 29.94 in 10.0 mi SSE 5.8 mph - N/A   Overcast
12:35 AM 28.4 °F 22.2 °F 19.4 °F 69% 29.94 in 10.0 mi South 5.8 mph - N/A   Overcast
12:55 AM 28.4 °F 22.2 °F 19.4 °F 69% 29.94 in 5.0 mi SSE 5.8 mph - N/A   Overcast
1:15 AM 28.4 °F - 21.2 °F 74% 29.93 in 2.5 mi Calm Calm - N/A   Overcast
1:55 AM 26.6 °F 21.2 °F 23.0 °F 86% 29.91 in 1.2 mi SSE 4.6 mph - N/A   Overcast
2:15 AM 26.6 °F 22.6 °F 24.8 °F 93% 29.90 in 1.5 mi SE 3.5 mph - N/A   Overcast
2:35 AM 26.6 °F 22.6 °F 23.0 °F 86% 29.89 in 1.0 mi SSE 3.5 mph - N/A   Overcast
2:55 AM 26.6 °F 22.6 °F 24.8 °F 93% 29.88 in 1.2 mi South 3.5 mph - N/A   Overcast
3:15 AM 26.6 °F - 24.8 °F 93% 29.87 in 1.5 mi Calm Calm - N/A   Overcast
3:35 AM 26.6 °F 19.1 °F 24.8 °F 93% 29.85 in 1.2 mi South 6.9 mph - 0.02 in   Overcast
3:55 AM 26.6 °F - 24.8 °F 93% 29.85 in 1.8 mi Calm Calm - 0.03 in   Overcast
4:15 AM 28.4 °F 24.6 °F 24.8 °F 86% 29.84 in 1.2 mi SSE 3.5 mph - N/A   Overcast
4:35 AM 28.4 °F 24.6 °F 24.8 °F 86% 29.83 in 1.5 mi South 3.5 mph - N/A   Overcast
4:55 AM 28.4 °F 23.3 °F 24.8 °F 86% 29.82 in 1.5 mi SSW 4.6 mph - N/A   Overcast
5:15 AM 28.4 °F 22.2 °F 26.6 °F 93% 29.81 in 2.5 mi SSW 5.8 mph - 0.01 in   Overcast
5:35 AM 30.2 °F 21.9 °F 26.6 °F 86% 29.81 in 1.5 mi SW 9.2 mph - 0.02 in   Overcast
5:55 AM 30.2 °F 25.4 °F 26.6 °F 86% 29.80 in 1.8 mi South 4.6 mph - 0.03 in   Overcast
6:15 AM 30.2 °F 26.7 °F 26.6 °F 86% 29.80 in 5.0 mi SSE 3.5 mph - N/A   Overcast
6:35 AM 30.2 °F 26.7 °F 28.4 °F 93% 29.80 in 10.0 mi South 3.5 mph - 0.01 in   Overcast
6:55 AM 30.2 °F - 26.6 °F 86% 29.79 in 10.0 mi Calm Calm - 0.02 in   Overcast
7:15 AM 32.0 °F 22.5 °F 24.8 °F 75% 29.79 in 10.0 mi West 12.7 mph 16.1 mph 0.01 in   Overcast
7:35 AM 32.0 °F 23.6 °F 24.8 °F 75% 29.79 in 10.0 mi West 10.4 mph - 0.01 in   Overcast
7:55 AM 32.0 °F 23.0 °F 23.0 °F 69% 29.79 in 10.0 mi West 11.5 mph 16.1 mph 0.03 in   Overcast
8:15 AM 32.0 °F 23.6 °F 24.8 °F 75% 29.79 in 10.0 mi West 10.4 mph - N/A   Overcast
8:35 AM 32.0 °F 23.6 °F 23.0 °F 69% 29.79 in 10.0 mi WNW 10.4 mph 18.4 mph 0.01 in   Overcast
8:55 AM 32.0 °F 23.0 °F 24.8 °F 75% 29.80 in 10.0 mi West 11.5 mph - 0.01 in   Overcast
9:15 AM 32.0 °F 23.6 °F 23.0 °F 69% 29.80 in 10.0 mi WNW 10.4 mph - N/A   Overcast
9:35 AM 32.0 °F 22.5 °F 23.0 °F 69% 29.80 in 10.0 mi WNW 12.7 mph - N/A   Overcast
9:55 AM 32.0 °F 21.6 °F 23.0 °F 69% 29.80 in 10.0 mi WNW 15.0 mph - N/A   Overcast
10:15 AM 32.0 °F 21.6 °F 24.8 °F 75% 29.81 in 10.0 mi WNW 15.0 mph - N/A   Overcast
10:35 AM 32.0 °F 22.1 °F 24.8 °F 75% 29.82 in 10.0 mi WNW 13.8 mph - N/A   Overcast
10:55 AM 32.0 °F 24.2 °F 24.8 °F 75% 29.82 in 10.0 mi WNW 9.2 mph 19.6 mph N/A   Overcast
11:15 AM 33.8 °F 25.3 °F 24.8 °F 70% 29.82 in 10.0 mi WNW 11.5 mph - N/A   Overcast
11:35 AM 33.8 °F 25.3 °F 23.0 °F 65% 29.82 in 10.0 mi West 11.5 mph - N/A   Overcast
11:55 AM 33.8 °F 24.3 °F 21.2 °F 60% 29.81 in 10.0 mi WNW 13.8 mph 18.4 mph N/A   Overcast
12:15 PM 33.8 °F 24.3 °F 23.0 °F 65% 29.80 in 10.0 mi WNW 13.8 mph - N/A   Overcast
12:35 PM 33.8 °F 25.8 °F 24.8 °F 70% 29.80 in 10.0 mi WNW 10.4 mph - N/A   Overcast
12:55 PM 33.8 °F 24.8 °F 24.8 °F 70% 29.80 in 10.0 mi West 12.7 mph - N/A   Overcast
1:15 PM 33.8 °F 24.8 °F 24.8 °F 70% 29.81 in 10.0 mi West 12.7 mph - N/A   Overcast
1:35 PM 33.8 °F 23.5 °F 24.8 °F 70% 29.81 in 10.0 mi WNW 16.1 mph - N/A   Overcast
1:55 PM 33.8 °F 23.5 °F 24.8 °F 70% 29.81 in 10.0 mi West 16.1 mph - N/A   Overcast
2:15 PM 33.8 °F 24.8 °F 24.8 °F 70% 29.82 in 10.0 mi West 12.7 mph - N/A   Overcast
2:35 PM 33.8 °F 24.3 °F 24.8 °F 70% 29.82 in 10.0 mi WNW 13.8 mph - N/A   Overcast
2:55 PM 33.8 °F 24.3 °F 24.8 °F 70% 29.82 in 10.0 mi WNW 13.8 mph - N/A   Overcast
3:35 PM 33.8 °F 23.2 °F 23.0 °F 65% 29.84 in 10.0 mi WNW 17.3 mph - N/A   Overcast
3:55 PM 33.8 °F 24.3 °F 23.0 °F 65% 29.84 in 10.0 mi WNW 13.8 mph - N/A   Overcast
4:15 PM 33.8 °F 23.9 °F 24.8 °F 70% 29.85 in 10.0 mi WNW 15.0 mph - N/A   Overcast
4:35 PM 33.8 °F 24.3 °F 24.8 °F 70% 29.86 in 10.0 mi WNW 13.8 mph - N/A   Overcast
4:55 PM 33.8 °F 24.8 °F 23.0 °F 65% 29.87 in 10.0 mi WNW 12.7 mph - N/A   Overcast
5:15 PM 33.8 °F 24.8 °F 21.2 °F 60% 29.88 in 10.0 mi WNW 12.7 mph - N/A   Overcast
5:35 PM 33.8 °F 23.5 °F 21.2 °F 60% 29.89 in 10.0 mi NW 16.1 mph - N/A   Overcast
5:55 PM 33.8 °F 24.3 °F 21.2 °F 60% 29.89 in 10.0 mi WNW 13.8 mph - N/A   Overcast
6:15 PM 33.8 °F 25.8 °F 21.2 °F 60% 29.90 in 10.0 mi WNW 10.4 mph - N/A   Overcast
6:35 PM 33.8 °F 25.3 °F 23.0 °F 65% 29.90 in 10.0 mi WNW 11.5 mph - N/A   Overcast
6:55 PM 33.8 °F 23.9 °F 21.2 °F 60% 29.91 in 10.0 mi WNW 15.0 mph - N/A   Overcast
7:15 PM 33.8 °F 23.9 °F 21.2 °F 60% 29.92 in 10.0 mi WNW 15.0 mph - N/A   Overcast
7:35 PM 33.8 °F 22.5 °F 21.2 °F 60% 29.92 in 10.0 mi West 19.6 mph 23.0 mph N/A   Overcast
7:55 PM 33.8 °F 23.2 °F 21.2 °F 60% 29.92 in 10.0 mi WNW 17.3 mph - N/A   Overcast
8:15 PM 33.8 °F 23.2 °F 21.2 °F 60% 29.93 in 10.0 mi WNW 17.3 mph - N/A   Overcast
8:35 PM 33.8 °F 23.9 °F 21.2 °F 60% 29.93 in 10.0 mi NW 15.0 mph - N/A   Overcast
8:55 PM 33.8 °F 23.9 °F 21.2 °F 60% 29.94 in 10.0 mi NW 15.0 mph 24.2 mph N/A   Overcast
9:15 PM 33.8 °F 23.2 °F 19.4 °F 56% 29.94 in 10.0 mi NW 17.3 mph 25.3 mph N/A   Overcast
9:35 PM 32.0 °F 21.2 °F 21.2 °F 64% 29.95 in 10.0 mi WNW 16.1 mph 21.9 mph N/A   Overcast
9:55 PM 32.0 °F 21.6 °F 21.2 °F 64% 29.96 in 10.0 mi WNW 15.0 mph - N/A   Overcast
10:15 PM 32.0 °F 23.0 °F 21.2 °F 64% 29.96 in 10.0 mi NW 11.5 mph 20.7 mph N/A   Overcast
10:35 PM 32.0 °F 22.5 °F 17.6 °F 55% 29.97 in 10.0 mi WNW 12.7 mph 21.9 mph N/A   Overcast
10:55 PM 32.0 °F 23.6 °F 21.2 °F 64% 29.97 in 10.0 mi WNW 10.4 mph 20.7 mph N/A   Overcast
11:15 PM 32.0 °F 24.8 °F 19.4 °F 60% 29.98 in 10.0 mi NW 8.1 mph - N/A   Overcast
11:35 PM 32.0 °F 22.1 °F 19.4 °F 60% 29.98 in 10.0 mi NW 13.8 mph 19.6 mph N/A   Overcast
11:55 PM 32.0 °F 23.6 °F 19.4 °F 60% 30.00 in 10.0 mi NW 10.4 mph 16.1 mph N/A   Overcast